www.pogodaiklimat.ru

Погода и климат >> Архив погоды >> Россия >> Алтайский край >> Поспелиха


ПОГОДА в Поспелихе

  • Прогноз погоды в Поспелихе
  • Монитор погоды в Поспелихе

АРХИВ ПОГОДЫ в Поспелихе

Время (UTC), дата Ветер
(напр.,м/с)
 
Видим.   Явления Облачность Т
(С)
Тd
(С)
f
(%)
Тe
(С)
Тes
(С)
Комфортность P
(гПа)
Po
(гПа)
Тmin
(С)
Tmax
(С)
R
(мм)
R24
(мм)
S
(см)
18 16.07 ЮЗ 2 20 км 2 балла +17.2 +11.2 68 +18 +18 1006.5 981.3
21 16.07 ЮЗ 2 20 км 2 балла +15.0 +10.8 76 +15 +15 1005.4 980.0
00 17.07 ЮЗ 2 20 км 8/0
[Ci sp]
+14.5 +10.2 75 +14 +15 1005.3 979.8 +14.2
03 17.07 ЮЗ 2 20 км 2 балла +22.5 +12.1 52 +25 +32 комфорт 1006.0 981.3
06 17.07 ЮЗ 4 20 км 2 балла +29.5 +12.0 34 +30 +39 жарко 1005.5 981.3
12 17.07 З 3
{10}
20 км 10/0
[Ac und Ci sp]
+27.5 +6.6 27 +27 +28 жарко 1004.8 980.3 +32.0
15 17.07 З 1 20 км гроза без осадков {ливн. осадки} 10/6 500 м
[Cb cap Ac und Ci sp]
+21.9 +14.0 61 +25 +25 комфорт 1005.0 980.2
18 17.07 СЗ 2 4000 м ливневой дождь, в посл. час гроза 10/8 500 м
[Cb cap Ac und]
+18.4 +15.3 82 +19 +19 1006.0 980.9
21 17.07 СЗ 1 20 км 10 баллов +17.7 +15.3 86 +19 +19 1006.4 981.3
00 18.07 СЗ 2 20 км {гроза, ливн. осадки} 8/3 600 м
[Cu med, cong Ac und Ci sp]
+17.9 +14.8 82 +18 +19 1005.1 980.0 +17.2 3
03 18.07 С 3 20 км 7 баллов +21.3 +16.5 74 +25 +27 комфорт 1006.1 981.3
06 18.07 СЗ 3 20 км 7 баллов +24.0 +14.4 55 +27 +31 жарко 1007.3 982.7
09 18.07 СЗ 4 20 км 6 баллов +24.9 +13.1 48 +27 +30 жарко 1007.3 982.7
12 18.07 СЗ 3 20 км 4/3 600 м
[Cu med, cong Ci sp]
+25.3 +10.6 40 +26 +28 жарко 1007.1 982.4 +26.0
15 18.07 С 2 20 км 10 баллов +20.0 +14.8 72 +23 +23 комфорт 1009.0 984.0
18 18.07 З 2 20 км 4/0
[Cc]
+17.4 +14.5 83 +18 +18 1009.2 984.0
21 18.07 СЗ 2 20 км 6 баллов +16.4 +14.0 86 +16 +16 1009.3 984.0
00 19.07 ЮЗ 1 4000 м 6/0
[Ac cast Ci sp]
+15.4 +13.6 89 +16 +17 1008.8 983.3 +14.3
03 19.07 ЮЗ 2 20 км 7 баллов +22.5 +14.6 61 +26 +29 жарко 1008.8 984.0
06 19.07 СЗ 4 20 км 7 баллов +26.2 +13.7 46 +28 +32 жарко 1008.5 984.0
09 19.07 З 4 20 км 6 баллов +27.8 +8.1 29 +28 +31 жарко 1007.1 982.7
12 19.07 СЗ 2 20 км 4/1 600 м
[Cu med, cong Ci sp]
+26.9 +8.0 30 +27 +29 жарко 1006.2 981.7 +28.1
15 19.07 СЗ 2 20 км 2 балла +20.8 +10.9 53 +23 +23 комфорт 1007.6 982.7
18 19.07 В 2 20 км 8/0
[Ac und Ci sp]
+19.1 +16.5 85 +21 +21 комфорт 1007.7 982.7
21 19.07 ЮВ 1 20 км 4 балла +17.9 +16.1 89 +19 +19 1007.8 982.7
00 20.07 С 1 4000 м дымка 6/0
[Ci sp]
+17.7 +16.3 92 +19 +20 1007.0 981.8 +16.9
03 20.07 СВ 2 20 км 7 баллов +20.7 +15.0 70 +24 +27 комфорт 1007.6 982.7
06 20.07 СВ 2 20 км 9/6 900 м
[Cu med, cong Ci sp]
+23.8 +13.0 51 +26 +27 жарко 1008.7 984.0
09 20.07 СВ 3 20 км 7 баллов +26.0 +13.1 45 +28 +31 жарко 1008.5 984.0
12 20.07 СВ 3 20 км 4/3 600 м
[Cu med, cong Ci sp]
+26.2 +13.0 44 +28 +30 жарко 1006.7 982.1 +26.8
15 20.07 СВ 1 20 км 6 баллов +21.9 +14.5 63 +25 +25 комфорт 1008.8 984.0
18 20.07 СЗ 1 20 км ясно +18.2 +14.3 78 +20 +20 1009.2 984.0
21 20.07 СЗ 3 20 км 7 баллов +17.7 +13.8 78 +18 +18 1007.9 982.7
00 21.07 З 1 20 км 10/3 600 м
[Cu med, cong Ac und Ci sp]
+18.4 +14.9 80 +20 +20 1007.0 981.8 +16.3
03 21.07 С 2 20 км 7 баллов +22.7 +17.2 71 +28 +30 душно 1007.4 982.7
06 21.07 С 2 20 км 7 баллов +25.7 +14.2 49 +28 +33 жарко 1007.2 982.7
09 21.07 З 1 20 км 2 балла +27.4 +10.6 35 +28 +39 жарко 1007.1 982.7
12 21.07 СЗ 2 20 км 6/0
[Ac cast Ci sp]
+26.6 +9.2 33 +27 +29 жарко 1005.8 981.3 +28.8
15 21.07 С 1 20 км 7 баллов +20.8 +14.4 67 +25 +25 комфорт 1006.2 981.3
18 21.07 СВ 1 20 км 6 баллов +18.6 +12.8 69 +20 +20 1006.4 981.3
21 21.07 С 2 20 км 2 балла +16.0 +12.5 80 +16 +16 1005.3 980.0
00 22.07 СВ 1 4000 м дымка 6/0
[Ci sp]
+14.9 +11.8 82 +15 +16 1004.9 979.5 +14.1
03 22.07 В 1 4000 м дымка ясно +20.0 +13.7 67 +23 +33 комфорт 1004.9 980.0
06 22.07 В 2 20 км 6 баллов +25.1 +12.0 44 +27 +33 жарко 1003.2 978.7
09 22.07 ЮЗ 1 20 км 2 балла +28.5 +10.2 32 +29 +40 жарко 1001.5 977.3
12 22.07 СВ 2 20 км 8/0
[Ci sp]
+26.2 +9.7 35 +27 +29 жарко 1001.0 976.6 +28.6
15 22.07 В 3 20 км 6 баллов +20.8 +12.7 60 +24 +24 комфорт 1002.1 977.3
18 22.07 штиль 0 20 км 7 баллов +16.7 +11.2 70 +17 +17 1002.4 977.3
21 22.07 СВ 1 20 км 9 баллов +16.2 +10.3 68 +17 +17 1002.5 977.3
00 23.07 В 1 4000 м дымка 10/0
[Ac lent Ci sp]
+15.5 +11.4 77 +16 +16 1001.8 976.5 +15.2
03 23.07 Ю 1 20 км 10 баллов +18.8 +15.5 81 +21 +21 комфорт 1002.2 977.3
06 23.07 С 1 20 км 10 баллов +20.0 +16.6 81 +24 +24 комфорт 1002.1 977.3
09 23.07 С 1 20 км 10 баллов +22.9 +15.7 64 +27 +27 душно 1001.9 977.3
12 23.07 Ю 1 20 км {ливн. осадки} 10/3 300 м
[Cb cap Ac und Ci sp]
+21.5 +17.5 78 +26 +27 душно 1002.2 977.5 +23.5 1

 

Местоположение метеостанции Поспелиха (Алтайский край, Россия): широта 52.00 долгота 81.83 высота над уровнем моря 217 м.

В архиве по умолчанию представлена погода в Поспелихе за последнюю неделю. Архивные данные за месяц целиком и за предыдущие месяцы, начиная с января 2011 года, Вы можете получить, выбрав интересующий диапазон дат из раскрывающегося списка и нажав кнопку "Ввод!".


*Определитесь, кто Вы:
робот инопланетянин человек

Внимание! Время в таблицах - всемирное. Для получения местного времени необходимо прибавить поправку, которая равна 7 ч.

Смотрите также архив погоды в соседних городах и на ближайших метеорологических станциях:

Погода в Шипуново (Алтайский край, Россия) (36 км)
Погода в Рубцовске (Алтайский край, Россия) (64 км)
Погода в Краснощеково (Алтайский край, Россия) (72 км)
Погода в Мамонтово (Алтайский край, Россия) (79 км)
Погода в Алейской (Алтайский край, Россия) (86 км)
Погода в Змеиногорске (Алтайский край, Россия) (97 км)
Погода в Волчихе (Алтайский край, Россия) (103 км)
Погода в Усть-Калманке (Алтайский край, Россия) (107 км)
Погода в Горняке (Алтайский край, Россия) (116 км)
Погода в Родино (Алтайский край, Россия) (124 км)

Пояснения к столбцам:

Ветер - указаны скорость ветра в м/с - средняя за 10 мин, порывы в срок и между сроками (в фигурных скобках) и направление, откуда дует ветер: С - северный, СВ - северо-восточный, В - восточный, ЮВ - юго-восточный, Ю - южный, ЮЗ - юго-западный, З - западный, СЗ - северо-западный.
Видимость - горизонтальная дальность видимости в метрах или километрах. При видимости от 1 до 10 км при отсутствии осадков обычно наблюдается дымка, при ухудшении видимости до 1 км и менее - туман. В сухую погоду видимость может ухудшаться дымом, пылью или мглою.
Явления - указаны атмосферные явления, наблюдавшиеся в срок или в последний час перед сроком; фигурными скобками обозначены явления, наблюдавшиеся между сроками (за 1-3 часа до срока); квадратными скобками обозначены град или гололедные отложения с указанием их диаметра в мм.
Облачность - указаны через наклонную черту общая и нижняя облачность в баллах и высота нижней границы облаков в метрах; квадратными скобками обозначены формы облаков: Ci - перистые, Cs - перисто-слоистые, Cc - перисто-кучевые, Ac - высококучевые, As - высокослоистые, Sc - слоисто-кучевые, Ns - слоисто-дождевые, Cu - кучевые, Cb - кучево-дождевые. Подробнее классификацию облаков см. в Атласе облаков (PDF).
T - Температура воздуха - температура, измеренная на высоте 2 м над землей.
Td - Температура точки росы - температура, при понижении до которой содержащийся в воздухе водяной пар достигнет насыщения.
f - Относительная влажность воздуха - влажноcть воздуха, измеренная на высоте 2 м над землей.
Te - Эффективная температура - температура, которую ощущает одетый по сезону человек в тени. Характеристика душности погоды. При расчете учитывается влияние влажности воздуха и скорости ветра на теплоощущения человека.
Tes - Эффективная температура на солнце - температура, которую ощущает человек, с поправкой на солнечный нагрев. Характеристика знойности погоды. Зависит от высоты солнца над горизонтом, облачности и скорости ветра. Ночью, в пасмурную погоду, а также при ветре 12 м/с и более поправка равна нулю.
P - Атмосферное давление - приведенное к уровню моря атмосферное давление.
Po - Атмосферное давление - измеренное на уровне метеостанции атмосферное давление.
Tmin - Минимальная температура - минимум температуры воздуха на высоте 2 м над землей.
Tmax - Максимальная температура - максимум температуры воздуха на высоте 2 м над землей.
R - Количество осадков - Количество выпавших осадков за период времени, мм. При наведении курсора мыши на число - период времени, за который выпало указанное количество осадков.
R24 - Количество осадков - Количество выпавших осадков за 24 часа, мм.
S - Снежный покров - Высота снежного покрова, см. При наведении курсора мыши на число - состояние снежного покрова и степень покрытия местности в баллах.